Regional Weather Roundup
Issued by NWS

Home | Current Version | Previous Version | Text Only | Print | Product List | Glossary Off
Versions: 1 2 3 4 5 6 7 8 9 10 11 12 13 14 15 16 17 18 19 20 21 22 23 24 25 26 27 28 29 30 31 32 33 34 35 36 37 38 39 40 41 42 43 44 45 46 47 48 49 50

000
ASUS43 KMKX 260528
RWRWI

WISCONSIN REGIONAL WEATHER ROUNDUP
NATIONAL WEATHER SERVICE MILWAUKEE/SULLIVAN WI
1200 AM CDT TUE MAY 26 2015

NOTE: "FAIR" INDICATES FEW OR NO CLOUDS BELOW 12,000 FEET WITH NO
SIGNIFICANT WEATHER AND/OR OBSTRUCTIONS TO VISIBILITY.

WIZ001-002-006>008-014>016-023>028-260600-
NORTHWEST WISCONSIN

CITY           SKY/WX    TMP DP  RH WIND       PRES   REMARKS
SUPERIOR ARPT  CLOUDY    46  46  99 CALM      29.80R
ASHLAND        FOG       49  49 100 CALM      29.78S VSB 3/4
HAYWARD        MOCLDY    55  54  96 CALM      29.77R
SIREN          PTCLDY    56  56  97 SW5       29.77R
CUMBERLAND     PTCLDY    55  54  94 S3        29.78S
RICE LAKE      PTCLDY    60  57  91 SE5       29.79S
CHETEK         CLOUDY    60  60  99 SE3       29.79R
LADYSMITH      MOCLDY    63  61  94 S6        29.81S
EAU CLAIRE     FOG       59  58  96 CALM      29.78R VSB 3/4
MENOMONIE      PTCLDY    61  60  96 CALM      29.79R
NEW RICHMOND   CLEAR     62  62 100 S5        29.78S
OSCEOLA        CLEAR     59  59 100 CALM      29.80R
$$

WIZ003>005-009-010-017-018-260600-
NORTH CENTRAL WISCONSIN

CITY           SKY/WX    TMP DP  RH WIND       PRES   REMARKS
MANITOWISH WTR CLEAR     57  57 100 S6        29.79F
ARBOR VITAE    MOCLDY    61  58  92 S3        29.80S
WOODRUFF       MOCLDY    61  58  92 S3        29.80S
RHINELANDER    CLOUDY    61  59  93 S6        29.82S
EAGLE RIVER    MOCLDY    59  58  97 CALM      29.80F
LAND O LAKES   CLEAR     60  58  94 S5        29.80F
PHILLIPS       CLOUDY    61  60  96 S7        29.80R
TOMAHAWK       CLOUDY    60  59  96 CALM      29.82S
MEDFORD        PTCLDY    59  59  97 S3        29.83R
MERRILL        PTCLDY    57  57 100 SE5       29.83S FOG
$$

WIZ029-030-035-036-043>047-260600-
CENTRAL WISCONSIN

CITY           SKY/WX    TMP DP  RH WIND       PRES   REMARKS
WAUSAU         MOCLDY    62  60  93 S6        29.82S
MOSINEE        PTCLDY    59  59 100 S3        29.85R
MARSHFIELD     MOCLDY    61  59  93 S5        29.83S
STEVENS POINT  PTCLDY    60  59  96 S6        29.84S
WAUPACA        PTCLDY    64  63  97 CALM      29.85S
WAUTOMA        PTCLDY    67  63  87 CALM      29.86S
WISC RAPIDS    PTCLDY    63  60  90 S5        29.84F
CAMP DOUGLAS   MOCLDY    66  66 100 S8        29.83S
$$

WIZ011>013-019>022-031-037>040-048>050-260600-
NORTHEAST WISCONSIN

CITY           SKY/WX    TMP DP  RH WIND       PRES   REMARKS
ANTIGO         PTCLDY    56  56 100 S8        29.84F
SHAWANO        MOCLDY    64  61  91 CALM      29.84S
OCONTO         MOCLDY    63  62  98 CALM      29.83S
STURGEON BAY   PTCLDY    64  59  82 S8        29.87S
GREEN BAY      PTCLDY    64  61  90 S7        29.85S
MANITOWOC      PTCLDY    69  61  75 S8        29.87S
APPLETON       PTCLDY    66  59  77 SW14      29.86S
CLINTONVILLE   PTCLDY    61  59  94 CALM      29.84S
OSHKOSH        PTCLDY    68  60  75 S9        29.86S
$$

WIZ032>034-041-042-053>061-260600-
SOUTHWEST WISCONSIN

CITY           SKY/WX    TMP DP  RH WIND       PRES   REMARKS
LA CROSSE      MOCLDY    71  62  73 S12       29.80R
SPARTA         MOCLDY    68  60  76 S10       29.83R
VIROQUA        MOCLDY    67  63  87 SW12      29.87R
BOSCOBEL       PTCLDY    71  62  73 VRB3      29.85F
PRAIRIE DU CHI PTCLDY    70  61  72 SE6       29.83F
PLATTEVILLE    CLEAR     67  63  85 S7        29.88F
$$

WIZ056-057-062-063-064-067-068-260600-
SOUTH CENTRAL WISCONSIN

CITY           SKY/WX    TMP DP  RH WIND       PRES   REMARKS
REEDSBURG      PTCLDY    68  62  80 S9        29.86S
BARABOO/DELLS  PTCLDY    68  59  73 SW8       29.86F
LONE ROCK      MOCLDY    70  61  73 SW3       29.86F
MINERAL POINT  PTCLDY    68  61  77 S8        29.88F
MADISON        PTCLDY    67  59  75 S6        29.88F
MIDDLETON      PTCLDY    69  59  70 SW5       29.88F
WATERTOWN      PTCLDY    68  63  84 S5        29.89F
MONROE         PTCLDY    66  61  82 S9        29.89F
JANESVILLE     CLEAR     68  59  73 S5        29.90F
$$

WIZ051-052-058>065-066-070>072-260600-
SOUTHEAST WISCONSIN

CITY           SKY/WX    TMP DP  RH WIND       PRES   REMARKS
MILWAUKEE      FAIR      68  59  73 SW7       29.92S
WAUKESHA       CLEAR     66  59  77 S5        29.93S
MILWAUKEE/TIMM PTCLDY    70  55  60 SW8       29.91S
RACINE         PTCLDY    71  58  63 SW10      29.94F
BURLINGTON     PTCLDY    62  58  87 CALM      29.92F
KENOSHA        PTCLDY    69  60  73 S7        29.93F
FOND DU LAC    MOCLDY    69  59  70 S10       29.88S
SHEBOYGAN      PTCLDY    66  61  84 SW9       29.89S
WEST BEND      PTCLDY    68  59  73 S7        29.90S
JUNEAU         PTCLDY    67  60  79 S9        29.90F
$$

LSZ147-162-260600-
LAKE SUPERIOR

STATION/POSITION TIME  TEMP    WIND        PRES    WAVE
                       AIR SEA DIR/SP/G            HT/PER
                 (UTC) (F)     (DEG/KT/KT) (MB)    (FT/S)
W MID LAKE BUOY  0450   38 36  300/  8/  8 1085.0S   2/ 5
DEVILS ISLAND    0500   44     340/  6/  7   N/A
PORT WING        0400   44     190/  1/  3 1088.0
SAXON HARBOR     0420   49      CALM  / 16 1085.0R
$$

LMZ867-665-643>646-260600-
LAKE MICHIGAN

STATION/POSITION TIME  TEMP    WIND        PRES    WAVE
                       AIR SEA DIR/SP/G            HT/PER
                 (UTC) (F)     (DEG/KT/KT) (MB)    (FT/S)
CHAMBERS ISLAND  0400   64     190/  7/ 14   N/A
N MID LAKE BUOY  0450   44 37  210/ 14/ 16   N/A     3/ 5
NORTHPORT PIER   0420   60     190/  3/ 19   N/A
SISTER BAY       0417   68     260/ 11/ 14   N/A
KEWAUNEE LAKESHO 0500   55     200/  5/  7   N/A
SHEBOYGAN LAKESH 0500   68     190/ 11/ 11   N/A
PORT WASHINGTON  0300   71     210/  7/  9   N/A
ATWATER BUOY     0500   56 47  180/  8/ 10   N/A
MILWAUKEE LAKESH 0500   70     210/ 10/ 12   N/A
S MID LAKE BUOY  0450   45 38  170/ 10/ 14   N/A     1
KENOSHA   LAKESH 0500   73     210/ 10/ 15   N/A
$$

TC  - TEMPERATURE IN CELSIUS
VSB - VISIBILITY IN STATUTE MILES
WCI - WIND CHILL INDEX
HX  - HEAT INDEX




USA.gov is the U.S. government's official web portal to all federal, state and local government web resources and services.